Showing default

YUNYAO-1 44, 63345

Orbit data source: Space-Track

YUNYAO-1 44, 63345 is a payload satellite owned by Yunyao yuhang (CN) in SSO that was launched on Fri, 21 Mar 2025 UTC via a GUSHENXING 1 launch vehicle from the Jiuquan Satellite Launch Center, China (JSC). Payload-class satellites include a variety of spacecraft equipped with specific instruments for various scientific and technological missions. These include communications satellites like Starlink; space stations such as the ISS; scientific satellites like the Hubble; Earth observation satellites from companies like Planet Labs, Umbra, and HawkEye 360; GPS; miniature CubeSats for education and research; and military/defense satellites.

Loading next visibility...
Identifier
63345, 2025-059B
Orbit
SSO
Last TLE update
7 hours ago
Origin
Manufacturer
Changguang WJ
Mission
Operational spacecraft
Bus & Motor
YY-1, Unknown motor
Mass
~50 kg wet, ~50 kg dry
Launch date (UTC)
2025-03-21 (2 months ago)
Launch vehicle
GUSHENXING 1
Launch site
Jiuquan Satellite Launch Center, China (JSC)
Object type
Payload
Rocket body
Debris
Shape & HBR
Unknown
Radar Cross Section
Medium (>0.1 m² and <1 m²)

Expand to show TLE details & history

TLE from 7 hours ago
0 YUNYAO-1 44
1 63345U 25059B   25128.95789273  .00004955  00000-0  30845-3 0  9996
2 63345  97.5981 308.7314 0014975 118.9721 241.3012 15.09960488  7328
Epoch: 2025-05-08T22:59Z
Definitive object data (Epoch: 2025-05-08T22:59:21.931Z)
Latitude
0.00001°
Longitude
96.86909°
Altitude
544.377 km
Speed
7.587 km/s
True Right ascension
20h 34m 55s
True Declination
0° 00' 00"
Sunlit
Object was in daylight at TLE epoch
Visualization TLE readout
Latitude
48.27784°
Longitude
88.58445°
Altitude
540.249 km
Speed
7.599 km/s
Apparent Right ascension
22h 58m 34s
Apparent Declination
8° 41' 12"
Sunlit
Object is in daylight
Visualization observer readout
Local Sidereal Time
13:42:39
Azimuth
47.507° ENE
Elevation
-28.367°
Doppler factor
1
Orbital elements
Apogee altitude
543.658 km
Perigee altitude
522.958 km
Semi-major axis
6,911.445 km
Eccentricity
0.0014975
Inclination
97.5981°
RAAN
308.7314°
Arg. of periapsis
118.9721°
True anomaly
241.15081°
Mean anomaly
241.3012°
Eccentric anomaly
241.22599°
Mean motion
3.77737 °/min
BSTAR
0.00030845
Orbital period
95.3 mins
Loading maneuver chart data...
Loading SW <> Apogee altitude chart data...
Loading historical data...
Loading historical data...
Loading historical data...
Loading historical data...
Loading historical data...
Loading historical data...
Loading historical data...
Other satellites on launch #59 in the year 2025 (2025-03-21 UTC)

YUNYAO-1 44 Visibility forecast

Observer location: undefined°, undefined°

Span
Click to sort rows by Start time (UTC) header in descending order
Start Az.
Max El. time (UTC)
Max El. Az.
Max El.
End time (UTC)
End Az.
7 mins2025-05-09 11:49:57.845Z159.051° S2025-05-09 11:53:57.845Z29.847° NE41.696°2025-05-09 11:56:57.845Z353.183° N
5 mins2025-05-10 01:00:57.845Z0.363° NNE2025-05-10 01:02:57.845Z288.35° WNW42.481°2025-05-10 01:05:57.845Z204.203° SW
|